Weather History for Darlington, SC

Change the Weather History Date:

Wednesday, February 5, 2014

  Actual Average (KFLO) Record (KFLO)
Temperature  
Mean Temperature 52 °F 47 °F  
Max Temperature 64 °F 58 °F 79 °F (2008)
Min Temperature 39 °F 36 °F 11 °F (1996)
Degree Days  
Heating Degree Days 14 18  
Month to date heating degree days 93  
Since 1 July heating degree days 1695  
Cooling Degree Days 0 0  
Month to date cooling degree days 0  
Year to date cooling degree days 2  
Growing Degree Days 2 (Base 50)    
Moisture  
Dew Point 41 °F    
Average Humidity 74    
Maximum Humidity 94    
Minimum Humidity 40    
Precipitation  
Precipitation 0.28 in 0.10 in 2.07 in (1985)
Month to date precipitation 0.52  
Year to date precipitation 3.75  
Sea Level Pressure  
Sea Level Pressure 29.95 in    
Wind  
Wind Speed 6 mph (WSW)    
Max Wind Speed 21 mph    
Max Gust Speed 25 mph    
Visibility 6 miles    
Events      
T = Trace of Precipitation, MM = Missing Value Source: NWS Daily Summary

Daily Weather History Graph

Daily Weather History Graph

Search for Another Location

Airport:

Trip Planner

Search our weather history database for the weather conditions in past years. The results will help you decide how hot, cold, wet, or windy it might be!

Date:

Astronomy

Feb. 05, 2014 Rise Set
Actual Time 7:14 AM EST 5:53 PM EST
Civil Twilight 6:48 AM EST 6:19 PM EST
Nautical Twilight 6:18 AM EST 6:49 PM EST
Astronomical Twilight 5:48 AM EST 7:18 PM EST
Moon 10:46 AM EST (2/5) No Moon Set
Length of Visible Light 11h 31m
Length of Day
10h 39m
Waxing Crescent, 39% of the Moon is Illuminated
Feb 5
Waxing Crescent
Feb 6
First Quarter
Feb 14
Full
Feb 22
Last Quarter
Mar 1
New

Hourly Weather History & Observations

Time (EST) Temp. Windchill Dew Point Humidity Pressure Visibility Wind Dir Wind Speed Gust Speed Precip Events Conditions
12:15 AM 39.2 °F 35.9 °F 37.4 °F 93% 30.11 in 1.0 mi NNW 4.6 mph - N/A   Overcast
12:35 AM 39.2 °F 37.0 °F 37.4 °F 93% 30.10 in 1.0 mi North 3.5 mph - N/A   Overcast
12:55 AM 41.0 °F 39.0 °F 37.4 °F 87% 30.09 in 1.2 mi North 3.5 mph - N/A   Overcast
1:15 AM 41.0 °F 38.0 °F 37.4 °F 87% 30.09 in 1.5 mi NNW 4.6 mph - N/A   Overcast
1:35 AM 41.0 °F - 37.4 °F 87% 30.08 in 2.0 mi Calm Calm - N/A   Overcast
1:55 AM 41.0 °F 39.0 °F 37.4 °F 87% 30.05 in 3.0 mi NE 3.5 mph - N/A   Overcast
2:15 AM 41.0 °F 39.0 °F 37.4 °F 87% 30.05 in 2.5 mi NE 3.5 mph - 0.05 in   Overcast
2:35 AM 41.0 °F 39.0 °F 37.4 °F 87% 30.04 in 4.0 mi NNE 3.5 mph - 0.12 in   Overcast
2:55 AM 41.0 °F 39.0 °F 37.4 °F 87% 30.02 in 5.0 mi NE 3.5 mph - 0.12 in   Overcast
3:15 AM 41.0 °F 38.0 °F 37.4 °F 87% 30.02 in 3.0 mi North 4.6 mph - N/A   Overcast
3:35 AM 41.0 °F - 37.4 °F 87% 30.01 in 5.0 mi Calm Calm - N/A   Overcast
3:55 AM 41.0 °F - 37.4 °F 87% 30.00 in 3.0 mi Calm Calm - N/A   Overcast
4:15 AM 41.0 °F - 37.4 °F 87% 29.99 in 3.0 mi Calm Calm - N/A   Overcast
4:35 AM 41.0 °F 39.0 °F 37.4 °F 87% 29.98 in 3.0 mi ESE 3.5 mph - N/A   Overcast
4:55 AM 41.0 °F 38.0 °F 37.4 °F 87% 29.95 in 1.0 mi ESE 4.6 mph - N/A   Overcast
5:15 AM 41.0 °F - 37.4 °F 87% 29.95 in 1.0 mi Calm Calm - N/A   Overcast
5:35 AM 41.0 °F - 37.4 °F 87% 29.95 in 0.8 mi Calm Calm - 0.01 in   Overcast
5:55 AM 41.0 °F - 37.4 °F 87% 29.95 in 0.8 mi Calm Calm - 0.01 in   Overcast
6:15 AM 41.0 °F 39.0 °F 37.4 °F 87% 29.95 in 1.0 mi South 3.5 mph - N/A   Overcast
6:35 AM 42.8 °F - 37.4 °F 81% 29.94 in 1.0 mi Calm Calm - N/A   Overcast
6:55 AM 41.0 °F - 37.4 °F 87% 29.95 in 1.0 mi Calm Calm - N/A   Overcast
7:15 AM 41.0 °F 38.0 °F 37.4 °F 87% 29.96 in 0.8 mi NW 4.6 mph - N/A   Overcast
7:35 AM 42.8 °F 39.3 °F 37.4 °F 81% 29.97 in 0.5 mi NW 5.8 mph - N/A   Overcast
7:55 AM 42.8 °F 41.1 °F 37.4 °F 81% 29.97 in 0.5 mi NW 3.5 mph - N/A   Overcast
8:15 AM 41.0 °F - 37.4 °F 87% 29.96 in 0.5 mi Calm Calm - N/A   Overcast
8:35 AM 42.8 °F - 37.4 °F 81% 29.95 in 1.0 mi Calm Calm - 0.01 in   Overcast
8:55 AM 41.0 °F 38.0 °F 37.4 °F 87% 29.94 in 0.8 mi SSE 4.6 mph - 0.01 in   Overcast
9:15 AM 42.8 °F 40.1 °F 39.2 °F 87% 29.93 in 0.5 mi SSE 4.6 mph - 0.01 in   Overcast
9:35 AM 42.8 °F 40.1 °F 39.2 °F 87% 29.92 in 0.5 mi South 4.6 mph - 0.01 in   Overcast
9:55 AM 44.6 °F 41.4 °F 41.0 °F 87% 29.93 in 0.2 mi South 5.8 mph - 0.02 in   Overcast
10:15 AM 46.4 °F 43.5 °F 42.8 °F 87% 29.91 in 7.0 mi South 5.8 mph - 0.11 in   Overcast
10:35 AM 46.4 °F 43.5 °F 42.8 °F 87% 29.91 in 10.0 mi SW 5.8 mph - 0.12 in   Overcast
10:55 AM 48.2 °F - 44.6 °F 87% 29.91 in 9.0 mi SW 8.1 mph - 0.12 in   Overcast
11:15 AM 48.2 °F - 46.4 °F 93% 29.91 in 6.0 mi WSW 5.8 mph - N/A   Overcast
11:35 AM 50.0 °F - 46.4 °F 87% 29.91 in 3.0 mi West 8.1 mph - N/A   Overcast
11:55 AM 51.8 °F - 48.2 °F 88% 29.90 in 1.2 mi WSW 8.1 mph - N/A   Overcast
12:15 PM 51.8 °F - 48.2 °F 88% 29.89 in 1.2 mi SW 11.5 mph - N/A   Overcast
12:35 PM 51.8 °F - 50.0 °F 94% 29.88 in 1.8 mi WSW 11.5 mph - N/A   Overcast
12:55 PM 53.6 °F - 51.8 °F 94% 29.86 in 2.5 mi WSW 11.5 mph - N/A   Overcast
1:15 PM 53.6 °F - 51.8 °F 94% 29.86 in 2.0 mi WSW 9.2 mph 18.4 mph N/A   Overcast
1:35 PM 55.4 °F - 53.6 °F 94% 29.85 in 8.0 mi WSW 13.8 mph 18.4 mph N/A   Overcast
1:55 PM 59.0 °F - 55.4 °F 88% 29.85 in 10.0 mi WSW 15.0 mph - N/A   Overcast
2:15 PM 60.8 °F - 53.6 °F 77% 29.85 in 10.0 mi SW 20.7 mph 25.3 mph N/A   Mostly Cloudy
2:35 PM 60.8 °F - 53.6 °F 77% 29.85 in 10.0 mi WSW 18.4 mph 24.2 mph N/A   Partly Cloudy
2:55 PM 62.6 °F - 53.6 °F 72% 29.85 in 10.0 mi SW 16.1 mph 24.2 mph N/A   Clear
3:15 PM 64.4 °F - 51.8 °F 64% 29.85 in 10.0 mi WSW 17.3 mph 23.0 mph N/A   Clear
3:35 PM 64.4 °F - 48.2 °F 56% 29.86 in 10.0 mi WSW 20.7 mph 24.2 mph N/A   Clear
3:55 PM 64.4 °F - 48.2 °F 56% 29.85 in 10.0 mi SW 15.0 mph 21.9 mph N/A   Clear
4:15 PM 64.4 °F - 48.2 °F 56% 29.85 in 10.0 mi SW 15.0 mph 19.6 mph N/A   Clear
4:35 PM 64.4 °F - 44.6 °F 49% 29.87 in 10.0 mi WSW 17.3 mph 24.2 mph N/A   Clear
4:55 PM 64.4 °F - 39.2 °F 40% 29.88 in 10.0 mi WSW 15.0 mph 21.9 mph N/A   Clear
5:15 PM 62.6 °F - 39.2 °F 42% 29.89 in 10.0 mi WSW 12.7 mph 18.4 mph N/A   Clear
5:35 PM 62.6 °F - 39.2 °F 42% 29.90 in 10.0 mi WSW 13.8 mph - N/A   Clear
5:55 PM 60.8 °F - 39.2 °F 45% 29.91 in 10.0 mi WSW 11.5 mph - N/A   Clear
6:15 PM 59.0 °F - 39.2 °F 48% 29.91 in 10.0 mi WSW 11.5 mph - N/A   Clear
6:35 PM 57.2 °F - 39.2 °F 51% 29.93 in 10.0 mi WSW 9.2 mph - N/A   Clear
6:55 PM 57.2 °F - 39.2 °F 51% 29.94 in 10.0 mi WSW 6.9 mph - N/A   Clear
7:15 PM 57.2 °F - 39.2 °F 51% 29.94 in 10.0 mi WSW 6.9 mph - N/A   Clear
7:35 PM 55.4 °F - 39.2 °F 54% 29.94 in 10.0 mi WSW 9.2 mph - N/A   Clear
7:55 PM 55.4 °F - 39.2 °F 54% 29.95 in 10.0 mi WSW 10.4 mph - N/A   Clear
8:15 PM 55.4 °F - 39.2 °F 54% 29.96 in 10.0 mi WSW 9.2 mph - N/A   Clear
8:35 PM 53.6 °F - 39.2 °F 58% 29.98 in 10.0 mi WSW 10.4 mph - N/A   Clear
8:55 PM 53.6 °F - 39.2 °F 58% 29.99 in 10.0 mi WSW 11.5 mph - N/A   Clear
9:15 PM 53.6 °F - 39.2 °F 58% 29.99 in 10.0 mi West 10.4 mph - N/A   Clear
9:35 PM 53.6 °F - 39.2 °F 58% 30.00 in 10.0 mi West 10.4 mph - N/A   Clear
9:55 PM 53.6 °F - 39.2 °F 58% 30.01 in 10.0 mi West 11.5 mph 16.1 mph N/A   Clear
10:15 PM 51.8 °F - 39.2 °F 62% 30.02 in 10.0 mi West 11.5 mph - N/A   Clear
10:35 PM 51.8 °F - 39.2 °F 62% 30.04 in 10.0 mi WNW 8.1 mph - N/A   Mostly Cloudy
10:55 PM 50.0 °F - 33.8 °F 54% 30.05 in 10.0 mi North 12.7 mph 18.4 mph N/A   Scattered Clouds
11:15 PM 48.2 °F - 32.0 °F 54% 30.07 in 10.0 mi NNW 10.4 mph - N/A   Clear
11:35 PM 48.2 °F - 32.0 °F 54% 30.07 in 10.0 mi NNW 6.9 mph - N/A   Clear
11:55 PM 46.4 °F 42.4 °F 32.0 °F 57% 30.07 in 10.0 mi NNW 8.1 mph - N/A   Clear